Flag for South Korea Weather past 2 weeks in Daegu, South Korea

Now
34 °F

Light rain. Fog.


Feels Like: 34 °F
Forecast: 33 / 45 °F
Wind: 2 mph from North

Location: Taegu Ab

Current Time: Mar 1, 2015 at 8:57:22 AM

Latest Report: Mar 1, 2015 at 8:00 AM


Visibility: 2 mi

Pressure: 30.07 "Hg

Humidity: 100%

Dew point: 34 °F

Location of DaeguLocation

Historic Weather in Daegu — Graph

°F

Daegu temperature yesterday

Maximum temperature yesterday: 45 °F (at 3:00 PM)
Minimum temperature yesterday: 27 °F (at 3:00 AM)
Average temperature yesterday: 36 °F

Past Weeks' High & Low Weather Summary

 TemperatureHumidityPressure
High57 °F (Feb 22, 3:00 PM)100% (Mar 1, 5:00 AM)30.45 "Hg (Mar 1, 5:00 AM)
Low25 °F (Feb 14, 7:00 AM)17% (Feb 26, 7:00 PM)29.89 "Hg (Feb 16, 5:00 PM)
Average41 °F59%30.12 "Hg
* Reported Feb 14 7:00 AM — Mar 1 7:00 AM, Daegu, Weather by CustomWeather, © 2015

Note: Actual official high and low records may vary slightly from our data, if they occured in-between our weather recording intervals... More about our weather records

Advertising

Daegu weather history for previous 24 hours

 ConditionsComfort  
Time TempWeatherWind HumidityBarometerVisibility
7:00 AM
Sun, Mar 1
34 °FLight rain. Fog.2 mph100%30.07 "Hg2 mi
6:00 AM34 °FLight rain. Fog.3 mph100%30.07 "Hg2 mi
5:00 AM34 °FLight rain. Fog.1 mph100%30.07 "Hg1 mi
2:00 AM34 °FLight snow. Fog.1 mph93%30.14 "Hg2 mi
11:00 PM
Sat, Feb 28
36 °FLight rain. Fog.1 mph93%30.21 "Hg4 mi
10:00 PM37 °FLight rain. Mostly cloudy.3 mph87%30.21 "Hg5 mi
9:00 PM39 °FLight rain. Mostly cloudy.6 mph75%30.21 "Hg6 mi
8:00 PM39 °FMostly cloudy.3 mph75%30.21 "HgN/A
7:00 PM41 °FMostly cloudy.2 mph66%30.21 "HgN/A
6:00 PM41 °FMostly cloudy.6 mph66%30.24 "HgN/A
5:00 PM43 °FMostly cloudy.8 mph49%30.24 "HgN/A
4:48 PM43 °FMostly cloudy.8 mph49%30.24 "HgN/A
4:00 PM45 °FPartly sunny.6 mph49%30.27 "HgN/A
3:00 PM45 °FBroken clouds.6 mph49%30.27 "HgN/A
2:00 PM43 °FPartly sunny.2 mph46%30.30 "HgN/A
1:00 PM39 °FBroken clouds.1 mph45%30.33 "HgN/A
12:00 PM37 °FBroken clouds.2 mph45%30.36 "HgN/A
11:00 AM36 °FPartly sunny.3 mph48%30.39 "HgN/A
10:00 AM32 °FPartly sunny.3 mph60%30.42 "HgN/A
9:00 AM30 °FBroken clouds.2 mph64%30.45 "HgN/A
8:00 AM27 °FScattered clouds.1 mph74%30.42 "HgN/A
Weather by CustomWeather, © 2015

See weather overviewHow to use our weather pages